This is the latest recevied weather packets stored in our database for station/object W7TTE. If no packets are shown the sender has not sent any weather packets the latest 10 day(s).
| Time | Temp. | Humidity | Pressure | Rain* | Wind** | Luminosity | Snow |
|---|---|---|---|---|---|---|---|
| 1777668496 | 30.56° C | 24% | 1012.6 hPa | 0 mm | - | 729 W/m² | - |
| 1777668192 | 31.11° C | 24% | 1012.8 hPa | 0 mm | - | 735 W/m² | - |
| 1777667888 | 31.11° C | 25% | 1012.7 hPa | 0 mm | - | 744 W/m² | - |
| 1777667586 | 31.67° C | 24% | 1012.7 hPa | 0 mm | - | 746 W/m² | - |
| 1777667283 | 30.56° C | 25% | 1012.9 hPa | 0 mm | - | 754 W/m² | - |
| 1777666979 | 30.56° C | 26% | 1013 hPa | 0 mm | - | 761 W/m² | - |
| 1777666676 | 30° C | 25% | 1012.8 hPa | 0 mm | - | 767 W/m² | - |
| 1777666373 | 30.56° C | 26% | 1012.9 hPa | 0 mm | - | 771 W/m² | - |
| 1777666070 | 30° C | 26% | 1012.9 hPa | 0 mm | - | 774 W/m² | - |
| 1777665767 | 30.56° C | 25% | 1012.9 hPa | 0 mm | - | 780 W/m² | - |
| 1777665464 | 30° C | 26% | 1013 hPa | 0 mm | - | 782 W/m² | - |
| 1777665160 | 30° C | 25% | 1013.1 hPa | 0 mm | - | 785 W/m² | - |
| 1777664856 | 30° C | 26% | 1013.1 hPa | 0 mm | - | 785 W/m² | - |
| 1777664553 | 29.44° C | 26% | 1013.3 hPa | 0 mm | - | 785 W/m² | - |
| 1777664249 | 29.44° C | 26% | 1013.4 hPa | 0 mm | - | 786 W/m² | - |
| 1777663948 | 30° C | 27% | 1013.6 hPa | 0 mm | - | 789 W/m² | - |
| 1777663645 | 29.44° C | 27% | 1013.5 hPa | 0 mm | - | 787 W/m² | - |
| 1777663342 | 28.89° C | 28% | 1013.6 hPa | 0 mm | - | 789 W/m² | - |
| 1777663039 | 28.89° C | 28% | 1013.8 hPa | 0 mm | - | 789 W/m² | - |
| 1777662736 | 28.89° C | 28% | 1013.7 hPa | 0 mm | - | 787 W/m² | - |
| 1777662432 | 29.44° C | 28% | 1013.9 hPa | 0 mm | - | 787 W/m² | - |
| 1777662128 | 28.89° C | 28% | 1013.8 hPa | 0 mm | - | 785 W/m² | - |
| 1777661824 | 29.44° C | 28% | 1014 hPa | 0 mm | - | 785 W/m² | - |
| 1777661520 | 28.33° C | 28% | 1014 hPa | 0 mm | - | 784 W/m² | - |
| 1777661217 | 28.33° C | 30% | 1014.1 hPa | 0 mm | - | 781 W/m² | - |
* Rain latest hour (hover to see other rain measurements)
** Current wind speed in m/s (hover to see current wind gust speed)